Weather History for Nuiqsut, AK

Change the Weather History Date:

Wednesday, February 6, 2013

  Actual Average (PAKU) Record (PAKU)
Temperature  
Mean Temperature -38 °F -  
Max Temperature -35 °F -12 °F 23 °F (2014)
Min Temperature -41 °F -20 °F -45 °F (1991)
Degree Days  
Heating Degree Days 103    
Moisture  
Dew Point -    
Average Humidity    
Maximum Humidity    
Minimum Humidity    
Precipitation  
Precipitation 0.00 in - - ()
Sea Level Pressure  
Sea Level Pressure 30.13 in    
Wind  
Wind Speed 9 mph (SSW)    
Max Wind Speed 12 mph    
Max Gust Speed -    
Visibility 9 miles    
Events      
Averages and records for this station are not official NWS values.
T = Trace of Precipitation, MM = Missing Value Source: NWS Daily Summary

Daily Weather History Graph

Daily Weather History Graph

Search for Another Location

Airport:

Trip Planner

Search our weather history database for the weather conditions in past years. The results will help you decide how hot, cold, wet, or windy it might be!

Date:

Astronomy

Feb. 06, 2013 Rise Set
Actual Time 10:22 AM AKST 4:15 PM AKST
Civil Twilight 9:03 AM AKST 5:33 PM AKST
Nautical Twilight 7:47 AM AKST 6:50 PM AKST
Astronomical Twilight 6:36 AM AKST 8:01 PM AKST
Moon No Moon Rise No Moon Set
Length of Visible Light 8h 29m
Length of Day
5h 52m
Waning Crescent, 15% of the Moon is Illuminated
Feb 6
Waning Crescent
Feb 9
New
Feb 17
First Quarter
Feb 25
Full
Mar 4
Last Quarter

Hourly Weather History & Observations

Time (AKST) Temp. Windchill Dew Point Humidity Pressure Visibility Wind Dir Wind Speed Gust Speed Precip Events Conditions
12:09 AM -40.0 °F -61.1 °F - N/A% 30.19 in 8.0 mi SSW 6.9 mph - N/A   Overcast
12:53 AM -40.0 °F -64.5 °F - N/A% 30.19 in 10.0 mi SSW 9.2 mph - N/A   Mostly Cloudy
1:14 AM -40.0 °F -64.5 °F - N/A% 30.18 in 9.0 mi SSW 9.2 mph - N/A   Scattered Clouds
1:25 AM -40.0 °F -64.5 °F - N/A% 30.18 in 10.0 mi SSW 9.2 mph - N/A   Mostly Cloudy
1:41 AM -40.0 °F -61.1 °F - N/A% 30.19 in 10.0 mi SSW 6.9 mph - N/A   Scattered Clouds
1:53 AM -40.0 °F -61.1 °F - N/A% 30.19 in 10.0 mi SSW 6.9 mph - N/A   Mostly Cloudy
2:02 AM -40.0 °F -62.9 °F - N/A% 30.18 in 10.0 mi SSW 8.1 mph - N/A   Scattered Clouds
2:37 AM -40.0 °F -64.5 °F - N/A% 30.18 in 10.0 mi SSW 9.2 mph - N/A   Mostly Cloudy
3:11 AM - - - N/A% 30.17 in - SSW 8.1 mph - N/A   Unknown
3:41 AM -40.0 °F -62.9 °F - N/A% 30.17 in 10.0 mi SSW 8.1 mph - N/A   Overcast
3:53 AM -40.0 °F -65.9 °F - N/A% 30.17 in 10.0 mi SSW 10.4 mph - N/A   Mostly Cloudy
4:05 AM -40.0 °F -64.5 °F - N/A% 30.16 in 10.0 mi SSW 9.2 mph - N/A   Scattered Clouds
4:53 AM -41.1 °F -67.3 °F - N/A% 30.16 in 10.0 mi SSW 10.4 mph - N/A   Clear
5:43 AM -41.8 °F -68.2 °F - N/A% 30.16 in 9.0 mi SSW 10.4 mph - N/A   Mostly Cloudy
5:53 AM -40.0 °F -64.5 °F - N/A% 30.16 in 10.0 mi SSW 9.2 mph - N/A   Mostly Cloudy
6:53 AM -38.9 °F -64.6 °F - N/A% 30.15 in 9.0 mi SSW 10.4 mph - N/A   Overcast
7:53 AM -38.0 °F -64.8 °F - N/A% 30.14 in 7.0 mi SSW 11.5 mph - N/A   Overcast
8:53 AM -36.9 °F -63.4 °F - N/A% 30.14 in 7.0 mi SSW 11.5 mph - N/A   Overcast
9:53 AM -38.0 °F -63.5 °F - N/A% 30.14 in 7.0 mi SSW 10.4 mph - N/A   Overcast
10:53 AM -36.9 °F -63.4 °F - N/A% 30.14 in 5.0 mi SSW 11.5 mph - N/A   Haze
11:53 AM -38.0 °F -63.5 °F - N/A% 30.13 in 7.0 mi SSW 10.4 mph - N/A   Overcast
12:53 PM -36.0 °F -59.6 °F - N/A% 30.13 in 6.0 mi SSW 9.2 mph - N/A   Haze
1:53 PM -36.0 °F -61.0 °F - N/A% 30.12 in 5.0 mi SSW 10.4 mph - N/A   Haze
2:53 PM -35.0 °F -59.7 °F - N/A% 30.11 in 10.0 mi SSW 10.4 mph - N/A   Overcast
3:53 PM -36.9 °F -62.1 °F - N/A% 30.11 in 10.0 mi SSW 10.4 mph - N/A   Clear
4:53 PM -38.0 °F -63.5 °F - N/A% 30.10 in 10.0 mi South 10.4 mph - N/A   Clear
5:53 PM -38.0 °F -63.5 °F - N/A% 30.09 in 9.0 mi SSW 10.4 mph - N/A   Clear
6:53 PM -38.9 °F -63.2 °F - N/A% 30.09 in 10.0 mi SSW 9.2 mph - N/A   Clear
7:51 PM -38.2 °F -62.3 °F - N/A% 30.08 in 10.0 mi SSW 9.2 mph - N/A   Partly Cloudy
7:53 PM -38.9 °F -63.2 °F - N/A% 30.08 in 10.0 mi SSW 9.2 mph - N/A   Partly Cloudy
8:53 PM -38.9 °F -64.6 °F - N/A% 30.07 in 7.0 mi SSW 10.4 mph - N/A   Clear
9:53 PM -38.9 °F -64.6 °F - N/A% 30.05 in 10.0 mi South 10.4 mph - N/A   Clear
10:53 PM -40.0 °F -62.9 °F - N/A% 30.04 in 9.0 mi South 8.1 mph - N/A   Clear
11:53 PM -38.9 °F -64.6 °F - N/A% 30.03 in 7.0 mi South 10.4 mph - N/A   Clear